sat.trackr.live / text

‹ back to catalog

LEMUR-2-ALISIA

NORAD 62706 · 2025-009DB

PAYLOAD ACTIVE UNKNOWN

§ Identity

Operator
Country
US
Launch date
2025-01-14
Launch site
AFWTR
Launch vehicle
Mass (kg)
RCS (m²)

Purposes: earth_obs

External: N2YO · Heavens-Above · Gunter

§ Orbital elements

Epoch: 2026-09-19T01:10:04.939392Z

Period
95.75 min
Inclination
97.6896°
Eccentricity
0.0001750
Mean motion
15.03953833 rev/d
Perigee alt
553.5 km
Apogee alt
555.9 km
Semi-major
6,932.9 km
B*
4.4858e-4
RAAN
343.6384°
Arg perigee
269.8866°
Mean anomaly
90.2159°
Rev number
11,426

§ Raw data

LEMUR-2-ALISIA1 62706U 25009DB  26262.04866828  .00006131  00000+0  44858-3 0  99992 62706  97.6896 343.6384 0001750 269.8866  90.2159 15.03953833114267

JSON: /api/v1/satellites/62706 · /tle

For live sub-satellite position, see the globe view (requires WebGL).

§ Visibility from observer

Set your observer location to see the next 7 days of passes ≥ 10°. The values pass through the URL so the page stays shareable.

No JS? Fill the form by hand. The geolocation button needs JavaScript.